• Processing (Info)

  • MPEC 2013-T85 : 2013 TA80

    The following Minor Planet Electronic Circular may be linked-to from your own Web pages, but must not otherwise be redistributed electronically.

    A form allowing access to any MPEC is at the bottom of this page.


    Read MPEC 2013-T84 Read MPEC 2013-T86


    M.P.E.C. 2013-T85                                Issued 2013 Oct. 10, 16:15 UT
    
         The Minor Planet Electronic Circulars contain information on unusual
             minor planets and routine data on comets.  They are published
       on behalf of Commission 20 of the International Astronomical Union by the
              Minor Planet Center, Smithsonian Astrophysical Observatory,
                              Cambridge, MA 02138, U.S.A.
    
                 Prepared using the Tamkin Foundation Computer Network
    
                                  MPC@CFA.HARVARD.EDU
                URL http://www.minorplanetcenter.net/    ISSN 1523-6714
    
                                       2013 TA80
    
    Observations:
         K13T80A* C2013 10 07.99827 02 02 39.35 +04 03 13.1          20.1 RtET085G36
         K13T80A  C2013 10 08.10166 02 02 26.66 +04 06 41.6          19.9 RtET085G36
         K13T80A  C2013 10 08.14801 02 02 20.99 +04 08 15.4          20.1 RtET085G36
         K13T80A  C2013 10 08.86091 02 00 56.37 +04 32 15.5          19.6 RqET085246
         K13T80A  C2013 10 08.86269 02 00 56.14 +04 32 19.2                qET085246
         K13T80A  C2013 10 08.86887 02 00 55.39 +04 32 32.0          18.5 RqET085246
         K13T80A  C2013 10 08.87324 02 00 54.86 +04 32 39.6                qET085246
         K13T80A  C2013 10 08.87507 02 00 54.65 +04 32 44.0          18.7 RqET085246
         K13T80A KC2013 10 09.31245 02 00 01.48 +04 47 34.5          19.7 RqET085448
         K13T80A KC2013 10 09.31704 02 00 00.67 +04 47 42.4          20.4 VqET085H21
         K13T80A KC2013 10 09.32289 01 59 59.93 +04 47 54.6          19.9 VqET085H21
         K13T80A KC2013 10 09.32874 01 59 59.20 +04 48 06.2          20.2 VqET085H21
         K13T80A KC2013 10 09.33219 01 59 58.94 +04 48 15.2          19.9 RqET085448
         K13T80A |C2013 10 09.33976 01 59 58.00 +04 48 29.5                cET085H06
         K13T80A |C2013 10 09.34176 01 59 57.77 +04 48 33.7                cET085H06
         K13T80A |C2013 10 09.34376 01 59 57.55 +04 48 36.9          20.3 VcET085H06
         K13T80A KC2013 10 09.35039 01 59 56.61 +04 48 51.0          19.5 RqET085448
         K13T80A KC2013 10 10.31833601 57 58.13 +05 21 42.2          19.7  rET085H21
         K13T80A KC2013 10 10.32326301 57 57.51 +05 21 52.2          19.8  rET085H21
         K13T80A KC2013 10 10.32834601 57 56.87 +05 22 02.7          19.8  rET085H21
         K13T80A 5C2013 10 10.48560 01 57 38.17 +05 27 37.5          19.6 RtET085E10
         K13T80A 5C2013 10 10.48769 01 57 37.83 +05 27 41.2          19.6 RtET085E10
    
    Observer details:
    246 Klet Observatory-KLENOT.  Observers M. Tichy, J. Ticha, M. Kocer,
        M. Honkova.  Measurer M. Tichy.  1.06-m KLENOT Telescope + CCD.
    448 Desert Moon Observatory.  Observer B. L. Stevens.  0.3-m
        Schmidt-Cassegrain + CCD.
    E10 Siding Spring-Faulkes Telescope South.  Observer R. Miles.  2.0-m f/10.0
        Ritchey-Chretien + CCD.
    G36 Calar Alto-CASADO.  Observers S. Mottola, G. Proffe.  Measurers G. Hahn,
        S. Hellmich.  1.23-m f/8 reflector + CCD.
    H06 iTelescope Observatory, Mayhill.  Observer H. Sato.  0.43-m f/6.8
        astrograph + CCD + f/4.5 focal reducer.
    H21 Astronomical Research Observatory, Westfield.  Observer R. Holmes.
        Measurers L. Buzzi, T. Vorobjov. S. Foglia, T. Linder, S. Foglia,
        H. Devore, A. Kostin, T. Lister. T.  0.61-m f/4.0 astrograph + CCD.
    
    Orbital elements:
    2013 TA80
    Epoch 2013 Nov. 4.0 TT = JDT 2456600.5                  MPC
    M   4.12928              (2000.0)            P               Q
    n   0.11040991     Peri.  348.39838     +0.95182318     -0.17070093
    a   4.3032577      Node    26.09733     +0.30658893     +0.51352460
    e   0.5966752      Incl.   35.38697     +0.00598882     +0.84092430
    P   8.93           H   18.6           G   0.15           U   8
    Residuals in seconds of arc
    131007 G36  0.0   0.4-    131009 448  0.5+  0.1+    131009 448  1.1-  0.5-
    131008 G36  0.2-  0.3-    131009 H21  0.0   0.1-    131010 H21  0.1-  0.1-
    131008 G36  0.1-  0.1+    131009 H21  0.1-  0.2+    131010 H21  0.0   0.2-
    131008 246  0.0   0.3+    131009 H21  0.1-  0.1-    131010 H21  0.1+  0.1-
    131008 246  0.2-  0.4+    131009 448  0.4-  0.6+    131010 E10  0.4+  0.3+
    131008 246  0.1-  0.7+    131009 H06  0.1-  0.3-    131010 E10  0.7-  0.3-
    131008 246  0.0   0.6-    131009 H06  0.3+  0.2-
    131008 246  0.2+  0.1+    131009 H06  0.7+  1.1-
    
    Ephemeris:
    2013 TA80                a,e,i = 4.30, 0.60, 35                  q = 1.7356
    Date    TT    R. A. (2000) Decl.     Delta      r     Elong.  Phase     V
    2013 09 10    02 38 16.4 -09 00 42   0.9256  1.7446   129.0    26.7    20.8
    ...
    2013 09 25    02 24 32.0 -02 44 43   0.8140  1.7358   145.4    19.1    20.3
    ...
    2013 10 03    02 12 02.3 +01 18 51   0.7744  1.7365   155.8    13.6    20.0
    ...
    2013 10 09    02 00 39.3 +04 37 04   0.7567  1.7394   164.3     9.0    19.8
    2013 10 10    01 58 37.5 +05 10 58   0.7548  1.7401   165.7     8.1    19.8
    2013 10 11    01 56 34.0 +05 45 01   0.7533  1.7409   167.2     7.3    19.7
    ...
    2013 10 17    01 43 44.3 +09 10 38   0.7510  1.7466   176.0     2.3    19.4
    ...
    2013 10 25    01 26 17.9 +13 37 33   0.7670  1.7574   172.2     4.4    19.6
    ...
    2013 11 09    00 57 53.8 +20 47 09   0.8520  1.7871   151.7    15.2    20.4
    
    A. U. Tomatic                (C) Copyright 2013 MPC           M.P.E.C. 2013-T85
    

    Read MPEC 2013-T84 Read MPEC 2013-T86


    MPEC number:

    Enter an MPEC number in one of the following forms:

    • 1997-B01 (the full form)
    • J97B01 (the packed version of the full form)
    • B01 (the abbreviated form)